| time (UTC) | temp F | wind direction | speed MPH | gust MPH | rain 1hr in | rain 24hr in | rain mn in | humidity % | barometer mb |
| 20260831022405 | 82 | 73 | 0.0 | 0.0 | 0.00 | 0.00 | 0.00 | 100 | 1015.3 |
| 20260831021905 | 82 | 73 | 0.0 | 0.0 | 0.00 | 0.00 | 0.00 | 100 | 1015.3 |
| 20260831021405 | 82 | 73 | 0.0 | 0.0 | 0.00 | 0.00 | 0.00 | 100 | 1015.4 |
| 20260831021229 | 82 | 73 | 0.0 | 0.0 | 0.00 | 0.00 | 0.00 | 100 | 1015.3 |
| 20260831020905 | 82 | 73 | 0.0 | 0.0 | 0.00 | 0.00 | 0.00 | 100 | 1015.3 |
| 20260831020405 | 82 | 73 | 0.0 | 0.0 | 0.00 | 0.00 | 0.00 | 100 | 1015.4 |
| 20260831015905 | 82 | 73 | 0.0 | 1.0 | 0.00 | 0.00 | 0.00 | 100 | 1015.4 |
| 20260831015405 | 82 | 122 | 0.0 | 0.0 | 0.00 | 0.00 | 0.00 | 100 | 1015.4 |
| 20260831015134 | 83 | 122 | 0.0 | 1.0 | 0.00 | 0.00 | 0.00 | 100 | 1015.4 |
| 20260831014905 | 83 | 122 | 0.0 | 1.0 | 0.00 | 0.00 | 0.00 | 100 | 1015.4 |
| 20260831014405 | 83 | 129 | 0.0 | 0.0 | 0.00 | 0.00 | 0.00 | 100 | 1015.4 |
| 20260831013905 | 83 | 132 | 0.0 | 2.0 | 0.00 | 0.00 | 0.00 | 100 | 1015.3 |
| 20260831013405 | 83 | 168 | 0.0 | 0.0 | 0.00 | 0.00 | 0.00 | 100 | 1015.2 |
| 20260831012905 | 83 | 168 | 0.0 | 0.0 | 0.00 | 0.00 | 0.00 | 100 | 1015.2 |
| 20260831012405 | 83 | 168 | 0.0 | 2.0 | 0.00 | 0.00 | 0.00 | 100 | 1015.2 |
| 20260831011905 | 83 | 94 | 0.0 | 3.0 | 0.00 | 0.00 | 0.00 | 100 | 1015.2 |
| 20260831011405 | 83 | 133 | 0.0 | 0.0 | 0.00 | 0.00 | 0.00 | 100 | 1014.6 |
| 20260831010905 | 83 | 133 | 0.0 | 2.0 | 0.00 | 0.00 | 0.00 | 100 | 1014.9 |
| 20260831010405 | 83 | 201 | 0.0 | 1.0 | 0.00 | 0.00 | 0.00 | 100 | 1013.6 |
| 20260831005905 | 83 | 126 | 0.0 | 5.0 | 0.00 | 0.00 | 0.00 | 100 | 1013.6 |
| 20260831005405 | 83 | 32 | 0.0 | 1.0 | 0.00 | 0.00 | 0.00 | 100 | 1013.9 |
| 20260831004905 | 83 | 18 | 0.0 | 6.0 | 0.00 | 0.00 | 0.00 | 100 | 1013.9 |
| 20260831004405 | 83 | 35 | 0.0 | 3.0 | 0.00 | 0.00 | 0.00 | 100 | 1014.2 |
| 20260831004140 | 83 | 77 | 0.0 | 6.0 | 0.00 | 0.00 | 0.00 | 100 | 1013.7 |
| 20260831003905 | 83 | 77 | 0.0 | 6.0 | 0.00 | 0.00 | 0.00 | 100 | 1013.7 |
| 20260831003405 | 84 | 59 | 0.0 | 0.0 | 0.00 | 0.00 | 0.00 | 100 | 1013.9 |
| 20260831003209 | 84 | 59 | 0.0 | 2.0 | 0.00 | 0.00 | 0.00 | 100 | 1014.5 |
| 20260831002905 | 84 | 59 | 0.0 | 2.0 | 0.00 | 0.00 | 0.00 | 100 | 1014.5 |
| 20260831002405 | 84 | 91 | 0.0 | 4.0 | 0.00 | 0.00 | 0.00 | 100 | 1014.7 |
| 20260831001905 | 84 | 71 | 2.0 | 4.0 | 0.00 | 0.00 | 0.00 | 100 | 1014.8 |
| 20260831001405 | 84 | 49 | 0.0 | 2.0 | 0.00 | 0.00 | 0.00 | 100 | 1014.9 |
| 20260831000905 | 84 | 111 | 0.0 | 3.0 | 0.00 | 0.00 | 0.00 | 100 | 1014.8 |
| 20260831000405 | 84 | 129 | 0.0 | 4.0 | 0.00 | 0.00 | 0.00 | 100 | 1014.9 |
| 20260830235905 | 84 | 61 | 0.0 | 3.0 | 0.00 | 0.00 | 0.00 | 100 | 1014.8 |
| 20260830235405 | 84 | 150 | 0.0 | 3.0 | 0.00 | 0.00 | 0.00 | 100 | 1014.7 |
| 20260830234905 | 84 | 217 | 0.0 | 2.0 | 0.00 | 0.00 | 0.00 | 100 | 1014.7 |
| 20260830234405 | 84 | 101 | 0.0 | 4.0 | 0.00 | 0.00 | 0.00 | 100 | 1014.7 |
| 20260830233905 | 84 | 75 | 0.0 | 0.0 | 0.00 | 0.00 | 0.00 | 100 | 1014.7 |
| 20260830233405 | 84 | 75 | 0.0 | 5.0 | 0.00 | 0.00 | 0.00 | 100 | 1014.7 |
| 20260830232905 | 84 | 81 | 2.0 | 2.0 | 0.00 | 0.00 | 0.00 | 100 | 1014.6 |
| 20260830232405 | 84 | 99 | 0.0 | 3.0 | 0.00 | 0.00 | 0.00 | 100 | 1014.7 |
| 20260830231905 | 84 | 150 | 0.0 | 0.0 | 0.00 | 0.00 | 0.00 | 100 | 1014.7 |
| 20260830231405 | 84 | 150 | 0.0 | 4.0 | 0.00 | 0.00 | 0.00 | 100 | 1014.7 |
| 20260830230905 | 84 | 66 | 0.0 | 0.0 | 0.00 | 0.00 | 0.00 | 100 | 1014.5 |
| 20260830230405 | 84 | 66 | 0.0 | 0.0 | 0.00 | 0.00 | 0.00 | 100 | 1014.7 |
| 20260830225905 | 84 | 66 | 0.0 | 5.0 | 0.00 | 0.00 | 0.00 | 100 | 1014.8 |
| 20260830225405 | 84 | 154 | 0.0 | 0.0 | 0.00 | 0.00 | 0.00 | 100 | 1014.9 |
| 20260830224905 | 84 | 154 | 0.0 | 0.0 | 0.00 | 0.00 | 0.00 | 100 | 1015.0 |
| 20260830224405 | 84 | 154 | 0.0 | 4.0 | 0.00 | 0.00 | 0.00 | 100 | 1015.2 |
| 20260830224208 | 84 | 286 | 0.0 | 3.0 | 0.00 | 0.00 | 0.00 | 100 | 1015.2 |
| 20260830223905 | 84 | 286 | 0.0 | 3.0 | 0.00 | 0.00 | 0.00 | 100 | 1015.2 |
| 20260830223405 | 84 | 81 | 3.0 | 3.0 | 0.00 | 0.00 | 0.00 | 100 | 1015.2 |
| 20260830222905 | 84 | 170 | 0.0 | 6.0 | 0.00 | 0.00 | 0.00 | 100 | 1015.2 |
| 20260830222405 | 84 | 237 | 0.0 | 7.0 | 0.00 | 0.00 | 0.00 | 100 | 1015.1 |
| 20260830222208 | 84 | 187 | 0.0 | 6.0 | 0.00 | 0.00 | 0.00 | 100 | 1015.0 |
| 20260830221905 | 84 | 187 | 0.0 | 6.0 | 0.00 | 0.00 | 0.00 | 100 | 1015.0 |
| 20260830221405 | 84 | 209 | 1.0 | 5.0 | 0.00 | 0.00 | 0.00 | 100 | 1015.1 |
| 20260830220905 | 84 | 192 | 0.0 | 5.0 | 0.00 | 0.00 | 0.00 | 100 | 1015.2 |
| 20260830220405 | 84 | 185 | 0.0 | 4.0 | 0.00 | 0.00 | 0.00 | 100 | 1015.3 |
| 20260830215905 | 84 | 188 | 4.0 | 4.0 | 0.00 | 0.00 | 0.00 | 100 | 1015.3 |
| 20260830215405 | 84 | 178 | 2.0 | 7.0 | 0.00 | 0.00 | 0.00 | 100 | 1015.2 |
| 20260830214905 | 84 | 143 | 0.0 | 9.0 | 0.00 | 0.00 | 0.00 | 100 | 1015.0 |
| 20260830214405 | 84 | 171 | 3.0 | 11.0 | 0.00 | 0.00 | 0.00 | 100 | 1014.9 |
| 20260830213905 | 84 | 217 | 2.0 | 9.0 | 0.00 | 0.00 | 0.00 | 100 | 1014.9 |
| 20260830213405 | 84 | 199 | 3.0 | 4.0 | 0.00 | 0.00 | 0.00 | 100 | 1014.2 |
| 20260830213138 | 84 | 22 | 0.0 | 5.0 | 0.00 | 0.00 | 0.00 | 100 | 1013.6 |
| 20260830212905 | 84 | 22 | 0.0 | 5.0 | 0.00 | 0.00 | 0.00 | 100 | 1013.6 |
| 20260830212405 | 84 | 19 | 4.0 | 5.0 | 0.00 | 0.00 | 0.00 | 100 | 1013.6 |
| 20260830211905 | 84 | 334 | 5.0 | 6.0 | 0.00 | 0.00 | 0.00 | 100 | 1013.6 |
| 20260830211405 | 84 | 341 | 3.0 | 5.0 | 0.00 | 0.00 | 0.00 | 100 | 1013.8 |
| 20260830211122 | 84 | 26 | 3.0 | 3.0 | 0.00 | 0.00 | 0.00 | 100 | 1013.8 |
| 20260830210905 | 84 | 26 | 3.0 | 3.0 | 0.00 | 0.00 | 0.00 | 100 | 1013.8 |
| 20260830210405 | 84 | 85 | 0.0 | 4.0 | 0.00 | 0.00 | 0.00 | 100 | 1014.1 |
| 20260830210036 | 85 | 105 | 2.0 | 4.0 | 0.00 | 0.00 | 0.00 | 100 | 1014.3 |
| 20260830205905 | 85 | 105 | 2.0 | 4.0 | 0.00 | 0.00 | 0.00 | 100 | 1014.3 |
| 20260830205405 | 86 | 67 | 0.0 | 3.0 | 0.00 | 0.00 | 0.00 | 100 | 1014.4 |
| 20260830204905 | 86 | 202 | 2.0 | 5.0 | 0.00 | 0.00 | 0.00 | 100 | 1014.4 |
| 20260830204405 | 86 | 157 | 2.0 | 6.0 | 0.00 | 0.00 | 0.00 | 100 | 1014.4 |
| 20260830203905 | 86 | 153 | 2.0 | 6.0 | 0.00 | 0.00 | 0.00 | 100 | 1014.4 |
| 20260830203406 | 86 | 192 | 3.0 | 9.0 | 0.00 | 0.00 | 0.00 | 100 | 1014.4 |
| 20260830202905 | 87 | 210 | 4.0 | 10.0 | 0.00 | 0.00 | 0.00 | 100 | 1014.2 |
| 20260830202406 | 88 | 205 | 7.0 | 12.0 | 0.00 | 0.00 | 0.00 | 100 | 1014.0 |
| 20260830202145 | 90 | 194 | 5.0 | 10.0 | 0.00 | 0.00 | 0.00 | 100 | 1014.1 |
| 20260830201906 | 90 | 194 | 5.0 | 10.0 | 0.00 | 0.00 | 0.00 | 100 | 1014.1 |
| 20260830201406 | 91 | 243 | 0.0 | 11.0 | 0.00 | 0.00 | 0.00 | 100 | 1013.8 |
| 20260830200906 | 91 | 320 | 1.0 | 11.0 | 0.00 | 0.00 | 0.00 | 100 | 1013.7 |
| 20260830200406 | 91 | 333 | 8.0 | 14.0 | 0.00 | 0.00 | 0.00 | 100 | 1013.7 |
| 20260830195906 | 91 | 337 | 4.0 | 12.0 | 0.00 | 0.00 | 0.00 | 100 | 1013.7 |
| 20260830195406 | 91 | 329 | 9.0 | 12.0 | 0.00 | 0.00 | 0.00 | 100 | 1013.7 |
| 20260830194906 | 91 | 358 | 9.0 | 13.0 | 0.00 | 0.00 | 0.00 | 100 | 1013.9 |
| 20260830194406 | 91 | 337 | 4.0 | 11.0 | 0.00 | 0.00 | 0.00 | 100 | 1014.0 |
| 20260830193906 | 91 | 15 | 8.0 | 14.0 | 0.00 | 0.00 | 0.00 | 100 | 1014.0 |
| 20260830193406 | 91 | 317 | 8.0 | 12.0 | 0.00 | 0.00 | 0.00 | 100 | 1014.0 |
| 20260830192906 | 91 | 330 | 7.0 | 12.0 | 0.00 | 0.00 | 0.00 | 100 | 1014.1 |
| 20260830192406 | 91 | 7 | 8.0 | 11.0 | 0.00 | 0.00 | 0.00 | 100 | 1014.3 |
| 20260830191906 | 91 | 333 | 8.0 | 11.0 | 0.00 | 0.00 | 0.00 | 100 | 1014.3 |
| 20260830191406 | 91 | 1 | 7.0 | 12.0 | 0.00 | 0.00 | 0.00 | 100 | 1014.4 |
| 20260830190906 | 91 | 16 | 9.0 | 10.0 | 0.00 | 0.00 | 0.00 | 100 | 1014.3 |
| 20260830190406 | 91 | 345 | 9.0 | 11.0 | 0.00 | 0.00 | 0.00 | 100 | 1014.3 |
| 20260830185906 | 91 | 341 | 7.0 | 13.0 | 0.00 | 0.00 | 0.00 | 100 | 1014.3 |
| 20260830185406 | 91 | 0 | 10.0 | 12.0 | 0.00 | 0.00 | 0.00 | 100 | 1014.5 |
| 20260830184906 | 91 | 14 | 8.0 | 12.0 | 0.00 | 0.00 | 0.00 | 100 | 1014.5 |
| 20260830184406 | 90 | 8 | 11.0 | 12.0 | 0.00 | 0.00 | 0.00 | 100 | 1014.6 |
| 20260830183906 | 91 | 7 | 6.0 | 9.0 | 0.00 | 0.00 | 0.00 | 100 | 1014.7 |
| 20260830183406 | 91 | 345 | 4.0 | 9.0 | 0.00 | 0.00 | 0.00 | 100 | 1014.7 |
| 20260830182906 | 91 | 350 | 4.0 | 11.0 | 0.00 | 0.00 | 0.00 | 100 | 1014.8 |
| 20260830182406 | 91 | 9 | 5.0 | 10.0 | 0.00 | 0.00 | 0.00 | 100 | 1015.0 |
| 20260830181906 | 90 | 36 | 6.0 | 9.0 | 0.00 | 0.00 | 0.00 | 100 | 1015.0 |
| 20260830181406 | 91 | 16 | 6.0 | 10.0 | 0.00 | 0.00 | 0.00 | 100 | 1015.0 |
| 20260830181234 | 91 | 347 | 8.0 | 8.0 | 0.00 | 0.00 | 0.00 | 100 | 1015.1 |
| 20260830180906 | 91 | 347 | 8.0 | 8.0 | 0.00 | 0.00 | 0.00 | 100 | 1015.1 |
| 20260830180406 | 91 | 315 | 8.0 | 8.0 | 0.00 | 0.00 | 0.00 | 100 | 1015.1 |
| 20260830175906 | 90 | 358 | 4.0 | 10.0 | 0.00 | 0.00 | 0.00 | 100 | 1015.2 |
| 20260830175406 | 91 | 18 | 4.0 | 9.0 | 0.00 | 0.00 | 0.00 | 100 | 1014.0 |
| 20260830174906 | 91 | 28 | 3.0 | 10.0 | 0.00 | 0.00 | 0.00 | 100 | 1015.2 |
| 20260830174406 | 91 | 358 | 5.0 | 10.0 | 0.00 | 0.00 | 0.00 | 100 | 1015.3 |
| 20260830173906 | 91 | 18 | 5.0 | 10.0 | 0.00 | 0.00 | 0.00 | 100 | 1015.3 |
| 20260830173407 | 92 | 343 | 6.0 | 9.0 | 0.00 | 0.00 | 0.00 | 100 | 1015.3 |
| 20260830172906 | 92 | 358 | 9.0 | 9.0 | 0.00 | 0.00 | 0.00 | 100 | 1015.4 |
| 20260830172406 | 93 | 12 | 0.0 | 5.0 | 0.00 | 0.00 | 0.00 | 100 | 1015.5 |
| 20260830171906 | 93 | 315 | 2.0 | 7.0 | 0.00 | 0.00 | 0.00 | 100 | 1015.5 |
| 20260830171407 | 94 | 16 | 6.0 | 6.0 | 0.00 | 0.00 | 0.00 | 100 | 1015.6 |
| 20260830170906 | 94 | 171 | 0.0 | 5.0 | 0.00 | 0.00 | 0.00 | 100 | 1015.4 |
| 20260830170406 | 93 | 236 | 0.0 | 4.0 | 0.00 | 0.00 | 0.00 | 100 | 1015.7 |
| 20260830165906 | 93 | 232 | 3.0 | 4.0 | 0.00 | 0.00 | 0.00 | 100 | 1014.5 |
| 20260830165406 | 93 | 2 | 0.0 | 5.0 | 0.00 | 0.00 | 0.00 | 100 | 1015.8 |
| 20260830164906 | 92 | 195 | 0.0 | 3.0 | 0.00 | 0.00 | 0.00 | 100 | 1015.8 |
| 20260830164406 | 92 | 262 | 1.0 | 4.0 | 0.00 | 0.00 | 0.00 | 100 | 1015.8 |
| 20260830163906 | 93 | 52 | 0.0 | 3.0 | 0.00 | 0.00 | 0.00 | 100 | 1015.9 |
| 20260830163406 | 93 | 60 | 0.0 | 3.0 | 0.00 | 0.00 | 0.00 | 100 | 1015.9 |
| 20260830162906 | 93 | 45 | 0.0 | 4.0 | 0.00 | 0.00 | 0.00 | 100 | 1016.0 |
| 20260830162406 | 92 | 227 | 0.0 | 0.0 | 0.00 | 0.00 | 0.00 | 100 | 1016.0 |
| 20260830161906 | 92 | 227 | 0.0 | 3.0 | 0.00 | 0.00 | 0.00 | 100 | 1016.1 |
| 20260830161406 | 92 | 265 | 0.0 | 5.0 | 0.00 | 0.00 | 0.00 | 100 | 1016.2 |
| 20260830160906 | 91 | 160 | 3.0 | 5.0 | 0.00 | 0.00 | 0.00 | 100 | 1016.3 |
| 20260830160406 | 91 | 194 | 2.0 | 5.0 | 0.00 | 0.00 | 0.00 | 100 | 1016.3 |
| 20260830155906 | 91 | 189 | 3.0 | 5.0 | 0.00 | 0.00 | 0.00 | 100 | 1016.3 |
| 20260830155406 | 91 | 157 | 2.0 | 4.0 | 0.00 | 0.00 | 0.00 | 100 | 1016.4 |
| 20260830154906 | 92 | 178 | 0.0 | 6.0 | 0.00 | 0.00 | 0.00 | 100 | 1016.4 |
| 20260830154406 | 92 | 260 | 5.0 | 5.0 | 0.00 | 0.00 | 0.00 | 100 | 1016.5 |
| 20260830153906 | 92 | 168 | 2.0 | 5.0 | 0.00 | 0.00 | 0.00 | 100 | 1016.6 |
| 20260830153406 | 92 | 19 | 0.0 | 5.0 | 0.00 | 0.00 | 0.00 | 100 | 1016.6 |
| 20260830152906 | 92 | 99 | 2.0 | 4.0 | 0.00 | 0.00 | 0.00 | 100 | 1016.6 |
| 20260830152406 | 92 | 174 | 2.0 | 6.0 | 0.00 | 0.00 | 0.00 | 100 | 1016.6 |
| 20260830151906 | 91 | 171 | 2.0 | 4.0 | 0.00 | 0.00 | 0.00 | 100 | 1016.6 |
| 20260830151406 | 91 | 170 | 2.0 | 6.0 | 0.00 | 0.00 | 0.00 | 100 | 1016.7 |
| 20260830150906 | 91 | 234 | 2.0 | 5.0 | 0.00 | 0.00 | 0.00 | 100 | 1016.7 |
| 20260830150406 | 91 | 262 | 1.0 | 5.0 | 0.00 | 0.00 | 0.00 | 100 | 1016.5 |
| 20260830145906 | 91 | 146 | 4.0 | 6.0 | 0.00 | 0.00 | 0.00 | 100 | 1016.5 |
| 20260830145406 | 91 | 225 | 2.0 | 2.0 | 0.00 | 0.00 | 0.00 | 100 | 1016.5 |
| 20260830145234 | 91 | 132 | 1.0 | 5.0 | 0.00 | 0.00 | 0.00 | 100 | 1016.5 |
| 20260830144906 | 91 | 132 | 1.0 | 5.0 | 0.00 | 0.00 | 0.00 | 100 | 1016.5 |
| 20260830144406 | 91 | 225 | 0.0 | 1.0 | 0.00 | 0.00 | 0.00 | 100 | 1016.5 |
| 20260830143906 | 90 | 177 | 0.0 | 3.0 | 0.00 | 0.00 | 0.00 | 100 | 1016.5 |
| 20260830143406 | 90 | 174 | 0.0 | 7.0 | 0.00 | 0.00 | 0.00 | 100 | 1016.5 |
| 20260830142906 | 90 | 50 | 2.0 | 5.0 | 0.00 | 0.00 | 0.00 | 100 | 1016.6 |
| 20260830142406 | 89 | 175 | 3.0 | 5.0 | 0.00 | 0.00 | 0.00 | 100 | 1016.6 |
| 20260830141906 | 89 | 232 | 2.0 | 5.0 | 0.00 | 0.00 | 0.00 | 100 | 1016.7 |
| 20260830141406 | 89 | 206 | 0.0 | 3.0 | 0.00 | 0.00 | 0.00 | 100 | 1016.7 |
| 20260830140906 | 89 | 182 | 2.0 | 6.0 | 0.00 | 0.00 | 0.00 | 100 | 1016.7 |
| 20260830140406 | 89 | 251 | 0.0 | 4.0 | 0.00 | 0.00 | 0.00 | 100 | 1016.7 |
| 20260830135906 | 88 | 251 | 1.0 | 5.0 | 0.00 | 0.00 | 0.00 | 100 | 1016.7 |
| 20260830135406 | 88 | 178 | 3.0 | 7.0 | 0.00 | 0.00 | 0.00 | 100 | 1016.7 |
| 20260830134906 | 88 | 147 | 0.0 | 5.0 | 0.00 | 0.00 | 0.00 | 100 | 1016.7 |
| 20260830134406 | 88 | 118 | 0.0 | 6.0 | 0.00 | 0.00 | 0.00 | 100 | 1016.7 |
| 20260830133906 | 87 | 115 | 0.0 | 4.0 | 0.00 | 0.00 | 0.00 | 100 | 1016.8 |
| 20260830133406 | 87 | 241 | 0.0 | 0.0 | 0.00 | 0.00 | 0.00 | 100 | 1016.7 |
| 20260830132906 | 87 | 241 | 0.0 | 3.0 | 0.00 | 0.00 | 0.00 | 100 | 1016.7 |
| 20260830132406 | 86 | 140 | 0.0 | 4.0 | 0.00 | 0.00 | 0.00 | 100 | 1016.6 |
| 20260830131906 | 86 | 126 | 0.0 | 0.0 | 0.00 | 0.00 | 0.00 | 100 | 1016.6 |
| 20260830131406 | 85 | 126 | 0.0 | 3.0 | 0.00 | 0.00 | 0.00 | 100 | 1016.5 |
| 20260830130906 | 85 | 133 | 0.0 | 4.0 | 0.00 | 0.00 | 0.00 | 100 | 1016.5 |
| 20260830130406 | 84 | 149 | 0.0 | 3.0 | 0.00 | 0.00 | 0.00 | 100 | 1016.4 |
| 20260830125906 | 84 | 210 | 0.0 | 3.0 | 0.00 | 0.00 | 0.00 | 100 | 1016.5 |
| 20260830125406 | 84 | 142 | 3.0 | 3.0 | 0.00 | 0.00 | 0.00 | 100 | 1016.3 |
| 20260830124906 | 83 | 122 | 0.0 | 0.0 | 0.00 | 0.00 | 0.00 | 100 | 1016.3 |
| 20260830124406 | 83 | 122 | 0.0 | 0.0 | 0.00 | 0.00 | 0.00 | 100 | 1016.3 |
| 20260830123906 | 83 | 122 | 0.0 | 0.0 | 0.00 | 0.00 | 0.00 | 100 | 1016.3 |
| 20260830123406 | 82 | 122 | 0.0 | 0.0 | 0.00 | 0.00 | 0.00 | 100 | 1016.3 |
| 20260830122906 | 82 | 122 | 0.0 | 2.0 | 0.00 | 0.00 | 0.00 | 100 | 1016.2 |
| 20260830122406 | 82 | 147 | 0.0 | 0.0 | 0.00 | 0.00 | 0.00 | 100 | 1016.1 |
| 20260830121906 | 82 | 147 | 0.0 | 0.0 | 0.00 | 0.00 | 0.00 | 100 | 1015.9 |
| 20260830121406 | 82 | 147 | 0.0 | 1.0 | 0.00 | 0.00 | 0.00 | 100 | 1015.9 |
| 20260830120906 | 81 | 175 | 0.0 | 0.0 | 0.00 | 0.00 | 0.00 | 100 | 1015.9 |
| 20260830120406 | 81 | 175 | 0.0 | 0.0 | 0.00 | 0.00 | 0.00 | 100 | 1015.8 |
| 20260830115906 | 81 | 175 | 0.0 | 0.0 | 0.00 | 0.00 | 0.00 | 100 | 1015.8 |
| 20260830115406 | 81 | 175 | 0.0 | 0.0 | 0.00 | 0.00 | 0.00 | 100 | 1015.8 |
| 20260830114906 | 81 | 175 | 0.0 | 0.0 | 0.00 | 0.00 | 0.00 | 100 | 1015.9 |
| 20260830114406 | 81 | 175 | 0.0 | 0.0 | 0.00 | 0.00 | 0.00 | 100 | 1015.9 |
| 20260830113906 | 81 | 175 | 0.0 | 0.0 | 0.00 | 0.00 | 0.00 | 100 | 1015.9 |
| 20260830113406 | 81 | 175 | 0.0 | 0.0 | 0.00 | 0.00 | 0.00 | 100 | 1015.7 |
| 20260830112906 | 81 | 175 | 0.0 | 0.0 | 0.00 | 0.00 | 0.00 | 100 | 1015.7 |
| 20260830112406 | 81 | 175 | 0.0 | 0.0 | 0.00 | 0.00 | 0.00 | 100 | 1015.7 |
| 20260830111906 | 81 | 175 | 0.0 | 0.0 | 0.00 | 0.00 | 0.00 | 100 | 1015.6 |
| 20260830111406 | 81 | 175 | 0.0 | 0.0 | 0.00 | 0.00 | 0.00 | 100 | 1015.6 |
| 20260830110906 | 81 | 175 | 0.0 | 0.0 | 0.00 | 0.00 | 0.00 | 100 | 1015.5 |
| 20260830110406 | 81 | 175 | 0.0 | 0.0 | 0.00 | 0.00 | 0.00 | 100 | 1015.5 |
| 20260830105913 | 81 | 175 | 0.0 | 0.0 | 0.00 | 0.00 | 0.00 | 100 | 1015.3 |
| 20260830105906 | 81 | 175 | 0.0 | 0.0 | 0.00 | 0.00 | 0.00 | 100 | 1015.4 |
| 20260830105406 | 81 | 175 | 0.0 | 0.0 | 0.00 | 0.00 | 0.00 | 100 | 1015.3 |
| 20260830104906 | 81 | 175 | 0.0 | 0.0 | 0.00 | 0.00 | 0.00 | 100 | 1015.3 |
| 20260830104406 | 81 | 175 | 0.0 | 0.0 | 0.00 | 0.00 | 0.00 | 100 | 1015.3 |
| 20260830103906 | 81 | 175 | 0.0 | 0.0 | 0.00 | 0.00 | 0.00 | 100 | 1015.2 |
| 20260830103406 | 81 | 175 | 0.0 | 0.0 | 0.00 | 0.00 | 0.00 | 100 | 1015.2 |
| 20260830102906 | 81 | 175 | 0.0 | 0.0 | 0.00 | 0.00 | 0.00 | 100 | 1015.1 |
| 20260830102406 | 81 | 175 | 0.0 | 0.0 | 0.00 | 0.00 | 0.00 | 100 | 1015.0 |
| 20260830101906 | 81 | 175 | 0.0 | 0.0 | 0.00 | 0.00 | 0.00 | 100 | 1014.9 |
| 20260830101406 | 81 | 175 | 0.0 | 0.0 | 0.00 | 0.00 | 0.00 | 100 | 1014.9 |
| 20260830100906 | 81 | 175 | 0.0 | 0.0 | 0.00 | 0.00 | 0.00 | 100 | 1014.9 |
| 20260830100406 | 81 | 175 | 0.0 | 0.0 | 0.00 | 0.00 | 0.00 | 100 | 1014.8 |
| 20260830095906 | 81 | 175 | 0.0 | 0.0 | 0.00 | 0.00 | 0.00 | 100 | 1014.7 |
| 20260830095406 | 81 | 175 | 0.0 | 0.0 | 0.00 | 0.00 | 0.00 | 100 | 1014.7 |
| 20260830094906 | 81 | 175 | 0.0 | 0.0 | 0.00 | 0.00 | 0.00 | 100 | 1014.6 |
| 20260830094409 | 81 | 175 | 0.0 | 0.0 | 0.00 | 0.00 | 0.00 | 100 | 1014.5 |
| 20260830093906 | 81 | 175 | 0.0 | 0.0 | 0.00 | 0.00 | 0.00 | 100 | 1014.6 |
| 20260830093406 | 81 | 175 | 0.0 | 0.0 | 0.00 | 0.00 | 0.00 | 100 | 1014.6 |
| 20260830092907 | 81 | 175 | 0.0 | 0.0 | 0.00 | 0.00 | 0.00 | 100 | 1014.6 |
| 20260830092406 | 81 | 175 | 0.0 | 0.0 | 0.00 | 0.00 | 0.00 | 100 | 1014.6 |
| 20260830091907 | 81 | 175 | 0.0 | 0.0 | 0.00 | 0.00 | 0.00 | 100 | 1014.6 |
| 20260830091406 | 81 | 175 | 0.0 | 0.0 | 0.00 | 0.00 | 0.00 | 100 | 1014.5 |
| 20260830090907 | 81 | 175 | 0.0 | 0.0 | 0.00 | 0.00 | 0.00 | 100 | 1014.5 |
| 20260830090407 | 81 | 175 | 0.0 | 0.0 | 0.00 | 0.00 | 0.00 | 100 | 1014.6 |
| 20260830085907 | 81 | 175 | 0.0 | 0.0 | 0.00 | 0.00 | 0.00 | 100 | 1014.6 |
| 20260830085407 | 81 | 175 | 0.0 | 0.0 | 0.00 | 0.00 | 0.00 | 100 | 1014.6 |
| 20260830084907 | 81 | 175 | 0.0 | 0.0 | 0.00 | 0.00 | 0.00 | 100 | 1014.6 |
| 20260830084407 | 81 | 175 | 0.0 | 0.0 | 0.00 | 0.00 | 0.00 | 100 | 1014.7 |
| 20260830083907 | 81 | 175 | 0.0 | 0.0 | 0.00 | 0.00 | 0.00 | 100 | 1014.8 |
| 20260830083407 | 81 | 175 | 0.0 | 0.0 | 0.00 | 0.00 | 0.00 | 100 | 1014.8 |
| 20260830082907 | 81 | 175 | 0.0 | 0.0 | 0.00 | 0.00 | 0.00 | 100 | 1014.8 |
| 20260830082407 | 82 | 175 | 0.0 | 4.0 | 0.00 | 0.00 | 0.00 | 100 | 1014.9 |
| 20260830081907 | 81 | 168 | 0.0 | 2.0 | 0.00 | 0.00 | 0.00 | 100 | 1015.0 |
| 20260830081407 | 82 | 163 | 0.0 | 0.0 | 0.00 | 0.00 | 0.00 | 100 | 1014.9 |
| 20260830080907 | 82 | 163 | 0.0 | 0.0 | 0.00 | 0.00 | 0.00 | 100 | 1014.9 |
| 20260830080407 | 82 | 163 | 0.0 | 0.0 | 0.00 | 0.00 | 0.00 | 100 | 1015.0 |
| 20260830075907 | 82 | 163 | 0.0 | 0.0 | 0.00 | 0.00 | 0.00 | 100 | 1014.9 |
| 20260830075407 | 82 | 163 | 0.0 | 0.0 | 0.00 | 0.00 | 0.00 | 100 | 1014.9 |
| 20260830074907 | 82 | 163 | 0.0 | 0.0 | 0.00 | 0.00 | 0.00 | 100 | 1014.9 |
| 20260830074407 | 82 | 163 | 0.0 | 0.0 | 0.00 | 0.00 | 0.00 | 100 | 1015.0 |
| 20260830073907 | 82 | 163 | 0.0 | 0.0 | 0.00 | 0.00 | 0.00 | 100 | 1015.1 |
| 20260830073407 | 82 | 163 | 0.0 | 0.0 | 0.00 | 0.00 | 0.00 | 100 | 1015.2 |
| 20260830072907 | 82 | 163 | 0.0 | 0.0 | 0.00 | 0.00 | 0.00 | 100 | 1015.2 |
| 20260830072407 | 82 | 163 | 0.0 | 0.0 | 0.00 | 0.00 | 0.00 | 100 | 1015.2 |
| 20260830071907 | 82 | 163 | 0.0 | 0.0 | 0.00 | 0.00 | 0.00 | 100 | 1015.1 |
| 20260830071407 | 82 | 163 | 0.0 | 0.0 | 0.00 | 0.00 | 0.00 | 100 | 1015.0 |
| 20260830070907 | 82 | 163 | 0.0 | 0.0 | 0.00 | 0.00 | 0.00 | 100 | 1015.0 |
| 20260830070407 | 82 | 163 | 0.0 | 0.0 | 0.00 | 0.00 | 0.00 | 100 | 1015.1 |
| 20260830065907 | 82 | 163 | 0.0 | 0.0 | 0.00 | 0.00 | 0.00 | 100 | 1015.1 |
| 20260830065407 | 82 | 163 | 0.0 | 0.0 | 0.00 | 0.00 | 0.00 | 100 | 1015.2 |
| 20260830064907 | 82 | 163 | 0.0 | 0.0 | 0.00 | 0.00 | 0.00 | 100 | 1015.2 |
| 20260830064407 | 82 | 163 | 0.0 | 1.0 | 0.00 | 0.00 | 0.00 | 100 | 1015.3 |
| 20260830063907 | 82 | 111 | 0.0 | 0.0 | 0.00 | 0.00 | 0.00 | 100 | 1015.4 |
| 20260830063407 | 82 | 111 | 0.0 | 0.0 | 0.00 | 0.00 | 0.00 | 100 | 1015.3 |
| 20260830063140 | 82 | 111 | 0.0 | 0.0 | 0.00 | 0.00 | 0.00 | 100 | 1015.3 |
| 20260830062907 | 82 | 111 | 0.0 | 0.0 | 0.00 | 0.00 | 0.00 | 100 | 1015.3 |
| 20260830062407 | 82 | 111 | 0.0 | 2.0 | 0.00 | 0.00 | 0.00 | 100 | 1015.3 |
| 20260830061907 | 82 | 18 | 0.0 | 0.0 | 0.00 | 0.00 | 0.00 | 100 | 1015.3 |
| 20260830061407 | 82 | 18 | 0.0 | 2.0 | 0.00 | 0.00 | 0.00 | 100 | 1015.2 |
| 20260830060909 | 82 | 165 | 0.0 | 2.0 | 0.00 | 0.00 | 0.00 | 100 | 1015.2 |
| 20260830060407 | 82 | 147 | 0.0 | 0.0 | 0.00 | 0.00 | 0.00 | 100 | 1015.2 |
| 20260830055907 | 82 | 147 | 0.0 | 0.0 | 0.00 | 0.00 | 0.00 | 100 | 1015.2 |
| 20260830055407 | 82 | 147 | 0.0 | 0.0 | 0.00 | 0.00 | 0.00 | 100 | 1015.2 |
| 20260830054907 | 82 | 147 | 0.0 | 2.0 | 0.00 | 0.00 | 0.00 | 100 | 1015.3 |
| 20260830054407 | 82 | 174 | 2.0 | 2.0 | 0.00 | 0.00 | 0.00 | 100 | 1015.3 |
| 20260830054328 | 82 | 164 | 0.0 | 0.0 | 0.00 | 0.00 | 0.00 | 100 | 1015.3 |
| 20260830053907 | 82 | 164 | 0.0 | 0.0 | 0.00 | 0.00 | 0.00 | 100 | 1015.3 |
| 20260830053407 | 82 | 164 | 0.0 | 0.0 | 0.00 | 0.00 | 0.00 | 100 | 1015.4 |
| 20260830052907 | 82 | 164 | 0.0 | 0.0 | 0.00 | 0.00 | 0.00 | 100 | 1015.5 |
| 20260830052407 | 82 | 164 | 0.0 | 0.0 | 0.00 | 0.00 | 0.00 | 100 | 1015.6 |
| 20260830051907 | 82 | 164 | 0.0 | 0.0 | 0.00 | 0.00 | 0.00 | 100 | 1015.7 |
| 20260830051407 | 82 | 164 | 0.0 | 0.0 | 0.00 | 0.00 | 0.00 | 100 | 1015.6 |
| 20260830051151 | 82 | 164 | 0.0 | 0.0 | 0.00 | 0.00 | 0.00 | 100 | 1015.6 |
| 20260830050907 | 82 | 164 | 0.0 | 0.0 | 0.00 | 0.00 | 0.00 | 100 | 1015.6 |
| 20260830050407 | 82 | 164 | 0.0 | 0.0 | 0.00 | 0.00 | 0.00 | 100 | 1015.6 |
| 20260830045907 | 82 | 164 | 0.0 | 0.0 | 0.00 | 0.00 | 0.00 | 100 | 1015.7 |
| 20260830045407 | 82 | 164 | 0.0 | 0.0 | 0.00 | 0.00 | 0.00 | 100 | 1015.8 |
| 20260830045125 | 82 | 164 | 0.0 | 0.0 | 0.00 | 0.00 | 0.00 | 100 | 1015.9 |
| 20260830044907 | 82 | 164 | 0.0 | 0.0 | 0.00 | 0.00 | 0.00 | 100 | 1015.9 |
| 20260830044407 | 82 | 164 | 0.0 | 0.0 | 0.00 | 0.00 | 0.00 | 100 | 1015.9 |
| 20260830043907 | 82 | 164 | 0.0 | 0.0 | 0.00 | 0.00 | 0.00 | 100 | 1015.9 |
| 20260830043407 | 82 | 164 | 0.0 | 0.0 | 0.00 | 0.00 | 0.00 | 100 | 1015.8 |
| 20260830042907 | 82 | 164 | 0.0 | 0.0 | 0.00 | 0.00 | 0.00 | 100 | 1015.7 |
| 20260830042407 | 82 | 164 | 0.0 | 0.0 | 0.00 | 0.00 | 0.00 | 100 | 1015.8 |
| 20260830041907 | 82 | 164 | 0.0 | 0.0 | 0.00 | 0.00 | 0.00 | 100 | 1015.8 |
| 20260830041407 | 82 | 164 | 0.0 | 0.0 | 0.00 | 0.00 | 0.00 | 100 | 1015.8 |
| 20260830040907 | 82 | 164 | 0.0 | 0.0 | 0.00 | 0.00 | 0.00 | 100 | 1015.8 |
| 20260830040407 | 82 | 164 | 0.0 | 4.0 | 0.00 | 0.00 | 0.00 | 100 | 1015.8 |
| 20260830035907 | 83 | 67 | 0.0 | 7.0 | 0.00 | 0.00 | 0.00 | 100 | 1015.8 |
| 20260830035407 | 82 | 181 | 0.0 | 3.0 | 0.00 | 0.00 | 0.00 | 100 | 1015.9 |
| 20260830034907 | 82 | 77 | 1.0 | 4.0 | 0.00 | 0.00 | 0.00 | 100 | 1016.0 |
| 20260830034407 | 82 | 198 | 0.0 | 5.0 | 0.00 | 0.00 | 0.00 | 100 | 1015.8 |
| 20260830034247 | 83 | 309 | 0.0 | 4.0 | 0.00 | 0.00 | 0.00 | 100 | 1015.7 |
| 20260830033907 | 83 | 309 | 0.0 | 4.0 | 0.00 | 0.00 | 0.00 | 100 | 1015.7 |
| 20260830033407 | 83 | 215 | 1.0 | 4.0 | 0.00 | 0.00 | 0.00 | 100 | 1015.8 |
| 20260830032907 | 83 | 140 | 0.0 | 0.0 | 0.00 | 0.00 | 0.00 | 100 | 1015.9 |
| 20260830032407 | 82 | 140 | 0.0 | 3.0 | 0.00 | 0.00 | 0.00 | 100 | 1015.9 |
| 20260830031907 | 82 | 36 | 1.0 | 7.0 | 0.00 | 0.00 | 0.00 | 100 | 1016.0 |
| 20260830031407 | 82 | 116 | 0.0 | 3.0 | 0.00 | 0.00 | 0.00 | 100 | 1016.1 |
| 20260830030907 | 83 | 174 | 1.0 | 2.0 | 0.00 | 0.00 | 0.00 | 100 | 1015.8 |
| 20260830030407 | 83 | 219 | 1.0 | 2.0 | 0.00 | 0.00 | 0.00 | 100 | 1015.3 |
| 20260830025907 | 83 | 195 | 0.0 | 0.0 | 0.00 | 0.00 | 0.00 | 100 | 1016.2 |
| 20260830025407 | 83 | 195 | 0.0 | 4.0 | 0.00 | 0.00 | 0.00 | 100 | 1016.1 |
| 20260830025140 | 83 | 180 | 0.0 | 2.0 | 0.00 | 0.00 | 0.00 | 100 | 1016.2 |
| 20260830024907 | 83 | 180 | 0.0 | 2.0 | 0.00 | 0.00 | 0.00 | 100 | 1016.2 |
| 20260830024532 | 83 | 180 | 1.0 | 3.0 | 0.00 | 0.00 | 0.00 | 100 | 1016.3 |
| 20260830024407 | 83 | 180 | 1.0 | 3.0 | 0.00 | 0.00 | 0.00 | 100 | 1016.3 |
| 20260830023907 | 83 | 101 | 0.0 | 0.0 | 0.00 | 0.00 | 0.00 | 100 | 1016.4 |
| 20260830023716 | 83 | 101 | 0.0 | 0.0 | 0.00 | 0.00 | 0.00 | 100 | 1016.3 |
| 20260830023407 | 83 | 101 | 0.0 | 0.0 | 0.00 | 0.00 | 0.00 | 100 | 1016.3 |
| 20260830022907 | 83 | 101 | 0.0 | 0.0 | 0.00 | 0.00 | 0.00 | 100 | 1016.2 |